EW1109 Weather Reports


Display with metric or nautical units.
time (UTC)temp
F
wind
direction
speed
MPH
gust
MPH
rain 1hr
in
rain 24hr
in
rain mn
in
humidity
%
barometer
mb
20260510130045 41 248 0.0 0.0 0.00 0.00 0.00 100 1016.2
20260510124529 41 230 0.0 3.0 0.00 0.00 0.00 100 1016.1
20260510123025 41 240 0.0 0.0 0.00 0.00 0.00 100 1016.0
20260510121520 41 263 0.0 4.0 0.00 0.00 0.00 100 1016.0
20260510120015 40 277 0.0 4.0 0.00 0.00 0.00 100 1015.7
20260510114517 40 281 0.0 0.0 0.00 0.00 0.00 100 1015.6
20260510113007 40 269 3.0 5.0 0.00 0.00 0.00 100 1015.4
20260510111502 40 261 4.0 6.0 0.00 0.00 0.00 100 1015.1
20260510110058 40 275 4.0 7.0 0.00 0.00 0.00 100 1014.9
20260510104551 40 265 4.0 7.0 0.00 0.00 0.00 100 1014.7
20260510103038 39 273 2.0 5.0 0.00 0.00 0.00 100 1014.5
20260510101533 37 269 0.0 4.0 0.00 0.00 0.00 100 1014.3
20260510100033 34 298 0.0 0.0 0.00 0.00 0.00 100 1014.1
20260510094532 35 298 0.0 0.0 0.00 0.00 0.00 100 1013.9
20260510093020 40 298 0.0 0.0 0.00 0.00 0.00 100 1013.6
20260510091516 40 298 0.0 0.0 0.00 0.00 0.00 100 1013.6
20260510090012 40 291 0.0 0.0 0.00 0.00 0.00 100 1013.5
20260510084556 40 293 0.0 0.0 0.00 0.00 0.00 100 1013.4
20260510083051 41 296 0.0 3.0 0.00 0.00 0.00 100 1013.2
20260510081548 41 301 0.0 3.0 0.00 0.00 0.00 100 1013.0
20260510080044 41 299 0.0 5.0 0.00 0.00 0.00 100 1012.9
20260510074543 41 295 5.0 9.0 0.00 0.00 0.00 100 1012.9
20260510073036 41 294 5.0 10.0 0.00 0.00 0.00 100 1012.6
20260510071530 41 298 3.0 8.0 0.00 0.00 0.00 100 1012.4
20260510070032 41 286 5.0 8.0 0.00 0.00 0.00 100 1012.2
20260510064520 41 281 4.0 6.0 0.00 0.00 0.00 100 1012.1
20260510063015 41 285 4.0 8.0 0.00 0.00 0.00 100 1012.0
20260510061514 41 300 2.0 9.0 0.00 0.00 0.00 100 1012.0
20260510060007 40 271 3.0 5.0 0.00 0.00 0.00 100 1012.0
20260510054502 40 270 2.0 5.0 0.00 0.00 0.00 100 1011.9
20260510053057 39 279 0.0 4.0 0.00 0.00 0.00 100 1011.8
20260510051542 38 296 0.0 0.0 0.00 0.00 0.00 7 1011.4
20260510050040 40 296 0.0 0.0 0.00 0.00 0.00 100 1011.4
20260510044532 40 296 0.0 0.0 0.00 0.00 0.00 100 1011.3
20260510043029 40 306 0.0 0.0 0.00 0.00 0.00 100 1011.2
20260510041528 41 337 0.0 0.0 0.00 0.00 0.00 5 1011.2
20260510040024 41 337 0.0 0.0 0.00 0.00 0.00 6 1011.1
20260510034516 41 337 0.0 0.0 0.00 0.00 0.00 10 1010.9
20260510033011 42 338 0.0 0.0 0.00 0.00 0.00 11 1010.7
20260510031507 42 338 0.0 0.0 0.00 0.00 0.00 9 1010.8
20260510030050 42 336 1.0 3.0 0.00 0.00 0.00 21 1010.7
20260510024545 42 331 0.0 1.0 0.00 0.00 0.00 19 1010.6
20260510023040 42 331 0.0 3.0 0.00 0.00 0.00 17 1010.6
20260510021539 42 331 0.0 4.0 0.00 0.00 0.00 16 1010.4
20260510020033 42 332 1.0 4.0 0.00 0.00 0.00 16 1010.2
20260510014531 43 331 0.0 5.0 0.00 0.00 0.00 10 1009.8
20260510013022 43 327 0.0 4.0 0.00 0.00 0.00 22 1009.7
20260510011520 43 331 3.0 7.0 0.00 0.00 0.00 33 1009.4
20260510010002 44 329 2.0 6.0 0.00 0.00 0.00 35 1009.1
20260510004559 44 329 5.0 10.0 0.00 0.00 0.00 36 1008.8
20260510003100 45 326 5.0 13.0 0.00 0.00 0.00 41 1008.3
20260510001549 45 340 6.0 10.0 0.00 0.00 0.00 45 1008.0
20260510000052 46 338 4.0 10.0 0.00 0.00 0.00 43 1007.7
20260509234551 46 355 5.0 13.0 0.00 0.00 0.00 42 1007.2
20260509233036 47 347 7.0 15.0 0.00 0.00 0.00 43 1007.0
20260509231531 47 338 4.0 7.0 0.00 0.00 0.00 43 1007.0
20260509230015 47 332 4.0 9.0 0.00 0.00 0.00 42 1006.7
20260509224511 47 333 6.0 11.0 0.00 0.00 0.00 40 1006.4
20260509223006 47 330 4.0 7.0 0.00 0.00 0.00 33 1006.1
20260509221502 47 330 5.0 8.0 0.00 0.00 0.00 34 1005.7
20260509220104 47 329 5.0 11.0 0.00 0.00 0.00 39 1005.3
20260509214554 47 329 3.0 8.0 0.00 0.00 0.00 46 1004.9
20260509213049 47 316 0.0 4.0 0.00 0.00 0.00 43 1004.6
20260509211546 47 299 1.0 5.0 0.00 0.00 0.00 41 1004.3
20260509210031 47 300 2.0 7.0 0.00 0.00 0.00 46 1003.9
20260509204529 48 304 0.0 4.0 0.00 0.00 0.00 50 1003.6
20260509203020 48 288 2.0 5.0 0.00 0.00 0.00 49 1003.5
20260509201516 47 302 2.0 7.0 0.00 0.00 0.00 46 1003.4
20260509200012 47 296 4.0 7.0 0.00 0.00 0.00 45 1003.0
20260509194508 47 298 0.0 0.0 0.00 0.00 0.00 42 1002.7
20260509193003 48 340 0.0 17.0 0.00 0.00 0.00 48 1002.5
20260509191611 44 323 0.0 4.0 0.00 0.00 0.00 31 1002.3
20260509190044 46 253 1.0 5.0 0.00 0.00 0.00 40 1002.0
20260509184539 46 251 0.0 6.0 0.00 0.00 0.00 39 1001.6
20260509183033 47 225 3.0 8.0 0.00 0.00 0.00 45 1001.4
20260509181529 47 260 4.0 9.0 0.00 0.00 0.00 43 1001.2
20260509180024 46 250 1.0 6.0 0.00 0.00 0.00 20 1001.0
20260509174520 44 254 0.0 6.0 0.00 0.00 0.00 100 1000.7
20260509173015 43 234 2.0 7.0 0.00 0.00 0.00 100 1000.7
20260509171513 44 236 1.0 8.0 0.00 0.00 0.00 100 1000.4
20260509170055 44 263 2.0 9.0 0.00 0.00 0.00 8 1000.2
20260509164550 45 213 1.0 9.0 0.00 0.00 0.00 23 1000.1
20260509163047 46 132 2.0 11.0 0.00 0.00 0.00 30 1000.0
20260509161542 46 171 3.0 9.0 0.00 0.00 0.00 24 999.9
20260509160038 45 259 2.0 9.0 0.00 0.00 0.00 100 999.8
20260509154535 44 240 1.0 8.0 0.00 0.00 0.00 100 999.5
20260509153033 45 265 0.0 5.0 0.00 0.00 0.00 100 999.1
20260509151526 45 238 0.0 5.0 0.00 0.00 0.00 100 999.1
20260509150015 44 180 0.0 7.0 0.00 0.00 0.00 100 998.9
20260509144512 44 230 0.0 5.0 0.00 0.00 0.00 100 998.5
20260509143102 44 232 0.0 5.0 0.00 0.00 0.00 100 998.3
20260509141556 44 239 0.0 7.0 0.00 0.00 0.00 100 998.2
20260509140105 44 211 1.0 12.0 0.00 0.00 0.00 100 998.3
20260509134551 45 252 1.0 10.0 0.00 0.00 0.00 100 997.7
20260509133042 45 196 2.0 7.0 0.00 0.00 0.00 100 997.7
20260509131549 45 261 2.0 5.0 0.00 0.00 0.00 100 997.8